Location: Abyssinia Baptist Church
(32.7840°N, 96.7578°W)
Time: 09:40:53
(UTC+00:00)

Meteor 2-15 Rocket - Pass Details

Date: 08 December 2021
Orbit: 939 x 956 km, 82.5° (Epoch: 28 January)

Event Time Altitude Azimuth Distance (km) Brightness Sun altitude
Rises 12:06:48 0° 351° (N) 3,607 7.2 -14.5°
Reaches altitude 10° 12:09:18 10° 350° (N) 2,658 6.5 -14.0°
Maximum altitude 12:15:21 78° 266° (W) 963 4.4 -12.8°
Drops below altitude 10° 12:21:23 10° 180° (S) 2,644 7.0 -11.6°
Sets 12:23:51 0° 179° (S) 3,586 7.8 -11.1°
